STARLINK-35243 (66016 NORAD) Tracking and Keplerian Element Data

This shows tracking and keplerian element data for the satellite.

Feedback or suggestion? Click here.




ElementValue
Catalog66016
NameSTARLINK-35243
Epoch Orbit1117
Epoch Day353.62501284
Epoch Year2025
RAAN116.0578
Inclination53.1595
Eccentricity0.0001252
Argument of Perigee68.7317
Mean Anonmoly291.3818
Mean Motion15.3018814
Decay Rate0.00026424
L11 66016U 25232M 25353.62501284 .00026424 00000+0 90145-3 0 9998
L22 66016 53.1595 116.0578 0001252 68.7317 291.3818 15.30188140 11172



Live tracking and technical data element details for STARLINK-35243 (NORAD 66016). STARLINK-35243 can be tracked NOW for your location showing map with azimuth and elevation plus other details from your city location.







IsCatalogInMostPopularTable: catalog: 66016, numindb: 12
Update: records affected: 1



GetName: 66016 STARLINK-35243

Hit Count: updated at: Tue, 21 Apr 2026 20:11:23 GMT